Погода в Русском Устье

Россия / Республика Саха (Якутия)     71°08′00″N   149°16′49″E
темп.,
°C
ветер,
м/с
пор.,
м/с
влажн.,
%
обл.,
%
осадки,
мм/ч
давл.,
гПа
погр.,
м
3 марта, ср
ср323:00−33в3310089 0.0 102719
02:00−31всв34100100 0.0 102833
05:00−30всв3599100 0.1 102793
08:00−32в3499100 0.0 102661
11:00−30всв4697100 0.1 1025235
14:00−29в4797100 0.1 1024304
17:00−31в4699100 0.1 1022106
20:00−33всв4699100 0.0 102191
4 марта, чт
чт423:00−33всв3799100 0.1 1020131
02:00−33св35100100 0.0 101883
05:00−31св4799100 0.1 1016160
08:00−30ссв5998100 0.1 1014232
11:00−30ссв61197100 0.1 1011285
14:00−27ссв81495100 0.0 1009386
17:00−26ссв91693100 0.0 1006477
20:00−25ссв101692100 0.0 1006506
5 марта, пт
пт523:00−25ссв101791100 0.0 1004536
02:00−24с111792100 0.0 1003589
05:00−23с111890100 0.0 1002686
08:00−23ссв111896100 0.4 1002790
11:00−22ссв111797100 1.4 1002814
14:00−22ссв111796100 0.9 1004772
17:00−23ссв101588100 1.4 1005703
20:00−23с91490100 0.0 1008615
6 марта, сб
сб623:00−24с81492100 0.0 1009542
02:00−25с81494100 0.0 1011468
05:00−25с81494100 0.0 1011392
08:00−25с81493100 0.0 1013378
11:00−25с91492100 0.0 1013396
14:00−25с81492100 0.0 1013466
17:00−26ссз81491100 0.0 1013401
20:00−28ссз81592100 0.0 1014349
7 марта, вс
вс723:00−30ссз7149494 0.0 1015287
02:00−31ссз7129577 0.0 1015233
05:00−32ссз6129539 0.0 1015223
08:00−33ссз599567 0.0 1016148
11:00−33сз589556 0.0 1017148
14:00−32сз589440 0.0 1017177
17:00−32сз479541 0.0 1017112
20:00−33сз479695 0.0 101890